Weather History for Columbus, OH

Change the Weather History Date:

Thursday, January 17, 2013

  Actual Average Record
Temperature  
Mean Temperature 32 °F 29 °F  
Max Temperature 38 °F 36 °F 62 °F (1952)
Min Temperature 26 °F 22 °F -19 °F (1977)
Degree Days  
Heating Degree Days 33 36  
Month to date heating degree days 520 605  
Since 1 July heating degree days 2421 2596  
Cooling Degree Days 0 0  
Month to date cooling degree days 0 0  
Year to date cooling degree days 0 0  
Moisture  
Dew Point 25 °F    
Average Humidity 71    
Maximum Humidity 82    
Minimum Humidity 59    
Precipitation  
Precipitation 0.00 in 0.09 in 1.30 in (1953)
Month to date precipitation 1.00 1.55  
Year to date precipitation 1.00 1.55  
Snow  
Snow 0.00 in 0.30 in 6.60 in (1994)
Month to date snowfall 0.4 5.0  
Since 1 July snowfall 16.1 11.1  
Snow Depth 0.00 in    
Sea Level Pressure  
Sea Level Pressure 30.17 in    
Wind  
Wind Speed 6 mph (WNW)    
Max Wind Speed 21 mph    
Max Gust Speed 28 mph    
Visibility 10 miles    
Events      
T = Trace of Precipitation, MM = Missing Value Source: NWS Daily Summary

Daily Weather History Graph

Daily Weather History Graph

Search for Another Location

Airport:

Trip Planner

Search our weather history database for the weather conditions in past years. The results will help you decide how hot, cold, wet, or windy it might be!

Date:

Astronomy

Jan. 17, 2013 Rise Set
Actual Time 7:50 AM EST 5:33 PM EST
Civil Twilight 7:20 AM EST 6:02 PM EST
Nautical Twilight 6:47 AM EST 6:36 PM EST
Astronomical Twilight 6:15 AM EST 7:08 PM EST
Moon 10:57 AM EST (1/17) No Moon Set
Length of Visible Light 10h 42m
Length of Day
9h 42m
Waxing Crescent, 37% of the Moon is Illuminated
Jan 17
Waxing Crescent
Jan 18
First Quarter
Jan 26
Full
Feb 3
Last Quarter
Feb 10
New

Hourly Weather History & Observations

Time (EST) Temp. Windchill Dew Point Humidity Pressure Visibility Wind Dir Wind Speed Gust Speed Precip Events Conditions
12:51 AM 33.1 °F 25.5 °F 28.0 °F 82% 30.09 in 8.0 mi WSW 9.2 mph - N/A   Overcast
1:26 AM 33.8 °F 27.0 °F 26.6 °F 75% 30.08 in 9.0 mi WSW 8.1 mph - N/A   Overcast
1:51 AM 33.8 °F 27.0 °F 26.6 °F 75% 30.08 in 10.0 mi West 8.1 mph - N/A   Overcast
2:26 AM 33.8 °F 28.6 °F 26.6 °F 75% 30.09 in 10.0 mi WSW 5.8 mph - N/A   Overcast
2:51 AM 33.1 °F 27.7 °F 25.0 °F 72% 30.12 in 10.0 mi West 5.8 mph - N/A   Overcast
3:02 AM 33.8 °F 29.6 °F 24.8 °F 70% 30.10 in 10.0 mi West 4.6 mph - N/A   Overcast
3:51 AM 34.0 °F 28.0 °F 24.1 °F 67% 30.12 in 10.0 mi WSW 6.9 mph - N/A   Overcast
4:51 AM 33.1 °F 26.9 °F 24.1 °F 70% 30.14 in 10.0 mi West 6.9 mph - N/A   Overcast
5:51 AM 33.1 °F 26.9 °F 25.0 °F 72% 30.14 in 10.0 mi West 6.9 mph - N/A   Overcast
6:51 AM 33.1 °F 28.7 °F 25.0 °F 72% 30.14 in 10.0 mi West 4.6 mph - N/A   Overcast
7:51 AM 32.0 °F 27.5 °F 25.0 °F 75% 30.17 in 10.0 mi WNW 4.6 mph - N/A   Overcast
8:51 AM 33.1 °F - 26.1 °F 75% 30.21 in 10.0 mi Calm Calm - N/A   Overcast
9:51 AM 34.0 °F - 26.1 °F 73% 30.23 in 9.0 mi Calm Calm - N/A   Mostly Cloudy
9:58 AM 33.8 °F - 26.6 °F 75% 30.20 in 9.0 mi Calm Calm - N/A   Overcast
10:51 AM 34.0 °F - 26.1 °F 73% 30.21 in 8.0 mi Calm Calm - N/A   Overcast
11:51 AM 36.0 °F 32.1 °F 27.0 °F 70% 30.18 in 8.0 mi North 4.6 mph - N/A   Mostly Cloudy
12:51 PM 37.0 °F 34.5 °F 28.0 °F 70% 30.15 in 9.0 mi NW 3.5 mph - N/A   Mostly Cloudy
1:51 PM 37.0 °F 32.4 °F 27.0 °F 67% 30.13 in 10.0 mi North 5.8 mph - N/A   Overcast
2:23 PM 37.4 °F 32.1 °F 26.6 °F 65% 30.11 in 10.0 mi NNW 6.9 mph - N/A   Mostly Cloudy
2:51 PM 37.9 °F 35.5 °F 26.1 °F 62% 30.15 in 10.0 mi North 3.5 mph - N/A   Mostly Cloudy
3:51 PM 37.0 °F 33.3 °F 25.0 °F 62% 30.16 in 10.0 mi North 4.6 mph - N/A   Overcast
4:51 PM 37.0 °F - 26.1 °F 65% 30.16 in 10.0 mi Calm Calm - N/A   Overcast
5:51 PM 37.0 °F 33.3 °F 26.1 °F 65% 30.21 in 10.0 mi SW 4.6 mph - N/A   Overcast
6:51 PM 36.0 °F 31.1 °F 28.0 °F 73% 30.21 in 10.0 mi WSW 5.8 mph - N/A   Overcast
7:51 PM 35.6 °F 31.7 °F 26.6 °F 70% 30.23 in 10.0 mi West 4.6 mph - N/A   Mostly Cloudy
8:51 PM 35.6 °F 26.2 °F 23.0 °F 60% 30.23 in 10.0 mi NW 15.0 mph - N/A   Scattered Clouds
9:51 PM 32.0 °F 21.2 °F 19.9 °F 61% 30.28 in 10.0 mi NW 16.1 mph - N/A   Partly Cloudy
10:51 PM 28.9 °F 18.2 °F 19.0 °F 67% 30.31 in 10.0 mi NW 13.8 mph - N/A   Partly Cloudy
11:51 PM 27.0 °F 13.9 °F 16.0 °F 63% 30.34 in 10.0 mi NW 18.4 mph 24.2 mph N/A   Partly Cloudy